Time,TemperatureF,DewpointF,PressureIn,WindDirection,WindDirectionDegrees,WindSpeedMPH,WindSpeedGustMPH,Humidity,HourlyPrecipIn,Conditions,Clouds,dailyrainin,SoftwareType,DateUTC
2013-07-14 00:00:00,72.1,69.0,30.15,East,79,0.0,9.0,90,0.00,,,0.06,Wunderground v.1.15,2013-07-14 04:00:00,
2013-07-14 00:02:00,72.2,69.1,30.15,ENE,63,0.0,9.0,90,0.00,,,0.00,Wunderground v.1.15,2013-07-14 04:02:00,
2013-07-14 00:06:00,72.2,69.1,30.15,ENE,74,0.0,9.0,90,0.00,,,0.00,Wunderground v.1.15,2013-07-14 04:06:00,
2013-07-14 00:10:00,72.2,69.1,30.15,ENE,75,0.0,9.0,90,0.00,,,0.00,Wunderground v.1.15,2013-07-14 04:10:00,
2013-07-14 00:12:00,72.2,69.1,30.15,ENE,71,0.0,9.0,90,0.00,,,0.00,Wunderground v.1.15,2013-07-14 04:12:00,
2013-07-14 00:14:00,72.2,69.1,30.15,ENE,57,0.0,9.0,90,0.00,,,0.00,Wunderground v.1.15,2013-07-14 04:14:00,
2013-07-14 00:16:00,72.2,69.1,30.15,ENE,57,0.0,9.0,90,0.00,,,0.00,Wunderground v.1.15,2013-07-14 04:16:00,
2013-07-14 00:18:00,72.1,69.0,30.16,ENE,65,0.0,9.0,90,0.00,,,0.00,Wunderground v.1.15,2013-07-14 04:18:00,
2013-07-14 00:20:00,72.1,69.0,30.16,ENE,65,0.0,9.0,90,0.00,,,0.00,Wunderground v.1.15,2013-07-14 04:20:00,
2013-07-14 00:22:00,72.1,69.0,30.16,ENE,69,0.0,9.0,90,0.00,,,0.00,Wunderground v.1.15,2013-07-14 04:22:00,
2013-07-14 00:26:00,72.0,68.9,30.16,ENE,74,0.0,9.0,90,0.00,,,0.00,Wunderground v.1.15,2013-07-14 04:26:00,
2013-07-14 00:28:00,71.9,68.8,30.16,SE,129,0.0,9.0,90,0.00,,,0.00,Wunderground v.1.15,2013-07-14 04:28:00,
2013-07-14 00:32:00,71.9,69.1,30.16,East,95,0.0,9.0,91,0.00,,,0.00,Wunderground v.1.15,2013-07-14 04:32:00,
2013-07-14 00:36:00,71.8,69.0,30.15,East,95,0.0,9.0,91,0.00,,,0.00,Wunderground v.1.15,2013-07-14 04:36:00,
2013-07-14 00:38:00,71.7,68.9,30.15,East,95,0.0,9.0,91,0.00,,,0.00,Wunderground v.1.15,2013-07-14 04:38:00,
2013-07-14 00:40:00,71.7,68.9,30.15,East,95,0.0,9.0,91,0.00,,,0.00,Wunderground v.1.15,2013-07-14 04:40:00,
2013-07-14 00:42:00,71.6,68.8,30.16,East,95,0.0,9.0,91,0.00,,,0.00,Wunderground v.1.15,2013-07-14 04:42:00,
2013-07-14 00:44:00,71.6,68.8,30.15,East,95,0.0,9.0,91,0.00,,,0.00,Wunderground v.1.15,2013-07-14 04:44:00,
2013-07-14 00:46:00,71.5,68.7,30.15,East,95,0.0,9.0,91,0.00,,,0.00,Wunderground v.1.15,2013-07-14 04:46:00,
2013-07-14 00:48:00,71.5,68.7,30.15,East,85,0.0,9.0,91,0.00,,,0.00,Wunderground v.1.15,2013-07-14 04:48:00,
2013-07-14 00:50:00,71.5,68.7,30.15,East,85,0.0,9.0,91,0.00,,,0.00,Wunderground v.1.15,2013-07-14 04:50:00,
2013-07-14 00:54:00,71.4,68.6,30.15,East,85,0.0,9.0,91,0.00,,,0.00,Wunderground v.1.15,2013-07-14 04:54:00,
2013-07-14 00:56:00,71.4,68.6,30.15,ENE,69,0.0,9.0,91,0.00,,,0.00,Wunderground v.1.15,2013-07-14 04:56:00,
2013-07-14 01:00:00,71.3,68.9,30.15,ENE,69,0.0,9.0,92,0.00,,,0.00,Wunderground v.1.15,2013-07-14 05:00:00,
2013-07-14 01:02:00,71.2,68.8,30.15,ENE,69,0.0,9.0,92,0.00,,,0.00,Wunderground v.1.15,2013-07-14 05:02:00,
2013-07-14 01:04:00,71.2,68.8,30.15,ENE,69,0.0,9.0,92,0.00,,,0.00,Wunderground v.1.15,2013-07-14 05:04:00,
2013-07-14 01:06:00,71.2,68.8,30.15,ENE,69,0.0,9.0,92,0.00,,,0.00,Wunderground v.1.15,2013-07-14 05:06:00,
2013-07-14 01:08:00,71.1,68.7,30.15,East,82,0.0,9.0,92,0.00,,,0.00,Wunderground v.1.15,2013-07-14 05:08:00,
2013-07-14 01:10:00,71.1,68.7,30.15,East,82,0.0,9.0,92,0.00,,,0.00,Wunderground v.1.15,2013-07-14 05:10:00,
2013-07-14 01:16:00,71.0,68.6,30.15,ENE,78,0.0,9.0,92,0.00,,,0.00,Wunderground v.1.15,2013-07-14 05:16:00,
2013-07-14 01:18:00,70.9,68.5,30.15,ENE,78,0.0,9.0,92,0.00,,,0.00,Wunderground v.1.15,2013-07-14 05:18:00,
2013-07-14 01:20:00,70.9,68.8,30.15,East,79,0.0,9.0,93,0.00,,,0.00,Wunderground v.1.15,2013-07-14 05:20:00,
2013-07-14 01:22:00,70.9,68.8,30.15,East,79,0.0,9.0,93,0.00,,,0.00,Wunderground v.1.15,2013-07-14 05:22:00,
2013-07-14 01:24:00,70.8,68.7,30.15,East,79,0.0,9.0,93,0.00,,,0.00,Wunderground v.1.15,2013-07-14 05:24:00,
2013-07-14 01:26:00,70.8,68.7,30.15,East,79,0.0,9.0,93,0.00,,,0.00,Wunderground v.1.15,2013-07-14 05:26:00,
2013-07-14 01:28:00,70.8,68.7,30.16,East,79,0.0,9.0,93,0.00,,,0.00,Wunderground v.1.15,2013-07-14 05:28:00,
2013-07-14 01:30:00,70.7,68.6,30.16,East,79,0.0,9.0,93,0.00,,,0.00,Wunderground v.1.15,2013-07-14 05:30:00,
2013-07-14 01:32:00,70.7,68.6,30.16,East,79,0.0,9.0,93,0.00,,,0.00,Wunderground v.1.15,2013-07-14 05:32:00,
2013-07-14 01:36:00,70.6,68.5,30.15,East,79,0.0,9.0,93,0.00,,,0.00,Wunderground v.1.15,2013-07-14 05:36:00,
2013-07-14 01:38:00,70.6,68.5,30.15,East,79,0.0,9.0,93,0.00,,,0.00,Wunderground v.1.15,2013-07-14 05:38:00,
2013-07-14 01:40:00,70.6,68.5,30.15,East,79,0.0,9.0,93,0.00,,,0.00,Wunderground v.1.15,2013-07-14 05:40:00,
2013-07-14 01:42:00,70.6,68.5,30.15,East,79,0.0,9.0,93,0.00,,,0.00,Wunderground v.1.15,2013-07-14 05:42:00,
2013-07-14 01:44:00,70.5,68.4,30.15,ENE,67,0.0,9.0,93,0.00,,,0.00,Wunderground v.1.15,2013-07-14 05:44:00,
2013-07-14 01:46:00,70.5,68.4,30.15,ENE,67,0.0,9.0,93,0.00,,,0.00,Wunderground v.1.15,2013-07-14 05:46:00,
2013-07-14 01:50:00,70.4,68.3,30.15,ENE,67,0.0,9.0,93,0.00,,,0.00,Wunderground v.1.15,2013-07-14 05:50:00,
2013-07-14 01:52:00,70.4,68.3,30.15,ENE,67,0.0,9.0,93,0.00,,,0.00,Wunderground v.1.15,2013-07-14 05:52:00,
2013-07-14 01:54:00,70.4,68.3,30.15,ENE,67,0.0,9.0,93,0.00,,,0.00,Wunderground v.1.15,2013-07-14 05:54:00,
2013-07-14 02:00:00,70.3,68.5,30.15,ENE,67,0.0,9.0,94,0.00,,,0.00,Wunderground v.1.15,2013-07-14 06:00:00,
2013-07-14 02:02:00,70.3,68.5,30.15,ENE,67,0.0,9.0,94,0.00,,,0.00,Wunderground v.1.15,2013-07-14 06:02:00,
2013-07-14 02:04:00,70.3,68.5,30.15,ENE,67,0.0,9.0,94,0.00,,,0.00,Wunderground v.1.15,2013-07-14 06:04:00,
2013-07-14 02:06:00,70.3,68.5,30.15,ENE,67,0.0,9.0,94,0.00,,,0.00,Wunderground v.1.15,2013-07-14 06:06:00,
2013-07-14 02:10:00,70.3,68.5,30.15,ENE,67,0.0,9.0,94,0.00,,,0.00,Wunderground v.1.15,2013-07-14 06:10:00,
2013-07-14 02:12:00,70.3,68.2,30.15,ENE,67,0.0,9.0,93,0.00,,,0.00,Wunderground v.1.15,2013-07-14 06:12:00,
2013-07-14 02:14:00,70.3,68.5,30.15,ENE,67,0.0,9.0,94,0.00,,,0.00,Wunderground v.1.15,2013-07-14 06:14:00,
2013-07-14 02:16:00,70.2,68.4,30.15,ENE,67,0.0,9.0,94,0.00,,,0.00,Wunderground v.1.15,2013-07-14 06:16:00,
2013-07-14 02:20:00,70.2,68.4,30.15,ENE,67,0.0,9.0,94,0.00,,,0.00,Wunderground v.1.15,2013-07-14 06:20:00,
2013-07-14 02:26:00,70.1,68.3,30.15,ENE,67,0.0,9.0,94,0.00,,,0.00,Wunderground v.1.15,2013-07-14 06:26:00,
2013-07-14 02:28:00,70.1,68.3,30.15,ENE,67,0.0,9.0,94,0.00,,,0.00,Wunderground v.1.15,2013-07-14 06:28:00,
2013-07-14 02:30:00,70.1,68.3,30.15,ENE,67,0.0,9.0,94,0.00,,,0.00,Wunderground v.1.15,2013-07-14 06:30:00,
2013-07-14 02:32:00,70.1,68.3,30.15,ENE,67,0.0,9.0,94,0.00,,,0.00,Wunderground v.1.15,2013-07-14 06:32:00,
2013-07-14 02:36:00,70.1,68.3,30.15,ENE,67,0.0,9.0,94,0.00,,,0.00,Wunderground v.1.15,2013-07-14 06:36:00,
2013-07-14 02:40:00,70.0,68.2,30.15,ENE,67,0.0,9.0,94,0.00,,,0.00,Wunderground v.1.15,2013-07-14 06:40:00,
2013-07-14 02:42:00,70.0,68.2,30.16,ENE,67,0.0,9.0,94,0.00,,,0.00,Wunderground v.1.15,2013-07-14 06:42:00,
2013-07-14 02:46:00,70.0,68.2,30.16,ENE,67,0.0,9.0,94,0.00,,,0.00,Wunderground v.1.15,2013-07-14 06:46:00,
2013-07-14 02:52:00,69.9,68.1,30.16,ENE,67,0.0,9.0,94,0.00,,,0.00,Wunderground v.1.15,2013-07-14 06:52:00,
2013-07-14 02:54:00,69.9,68.1,30.16,ENE,67,0.0,9.0,94,0.00,,,0.00,Wunderground v.1.15,2013-07-14 06:54:00,
2013-07-14 02:58:00,69.9,68.1,30.16,ENE,67,0.0,9.0,94,0.00,,,0.00,Wunderground v.1.15,2013-07-14 06:58:00,
2013-07-14 03:00:00,69.9,68.1,30.16,ENE,67,0.0,9.0,94,0.00,,,0.00,Wunderground v.1.15,2013-07-14 07:00:00,
2013-07-14 03:02:00,69.9,68.1,30.16,ENE,67,0.0,9.0,94,0.00,,,0.00,Wunderground v.1.15,2013-07-14 07:02:00,
2013-07-14 03:04:00,69.9,68.1,30.16,ENE,67,0.0,9.0,94,0.00,,,0.00,Wunderground v.1.15,2013-07-14 07:04:00,
2013-07-14 03:06:00,69.9,68.1,30.16,ENE,67,0.0,9.0,94,0.00,,,0.00,Wunderground v.1.15,2013-07-14 07:06:00,
2013-07-14 03:08:00,69.8,68.0,30.16,ENE,67,0.0,9.0,94,0.00,,,0.00,Wunderground v.1.15,2013-07-14 07:08:00,
2013-07-14 03:10:00,69.8,68.0,30.16,ENE,67,0.0,9.0,94,0.00,,,0.00,Wunderground v.1.15,2013-07-14 07:10:00,
2013-07-14 03:12:00,69.8,68.0,30.16,ENE,67,0.0,9.0,94,0.00,,,0.00,Wunderground v.1.15,2013-07-14 07:12:00,
2013-07-14 03:16:00,69.8,68.0,30.16,ENE,67,0.0,9.0,94,0.00,,,0.00,Wunderground v.1.15,2013-07-14 07:16:00,
2013-07-14 03:18:00,69.8,68.0,30.16,ENE,67,0.0,9.0,94,0.00,,,0.00,Wunderground v.1.15,2013-07-14 07:18:00,
2013-07-14 03:20:00,69.8,68.0,30.16,ENE,67,0.0,9.0,94,0.00,,,0.00,Wunderground v.1.15,2013-07-14 07:20:00,
2013-07-14 03:24:00,69.7,67.9,30.16,ENE,67,0.0,9.0,94,0.00,,,0.00,Wunderground v.1.15,2013-07-14 07:24:00,
2013-07-14 03:26:00,69.8,68.0,30.16,ENE,67,0.0,9.0,94,0.00,,,0.00,Wunderground v.1.15,2013-07-14 07:26:00,
2013-07-14 03:32:00,69.7,67.9,30.16,ENE,67,0.0,9.0,94,0.00,,,0.00,Wunderground v.1.15,2013-07-14 07:32:00,
2013-07-14 03:34:00,69.6,67.8,30.16,ENE,67,0.0,9.0,94,0.00,,,0.00,Wunderground v.1.15,2013-07-14 07:34:00,
2013-07-14 03:40:00,69.6,67.8,30.16,ENE,67,0.0,9.0,94,0.00,,,0.00,Wunderground v.1.15,2013-07-14 07:40:00,
2013-07-14 03:42:00,69.6,67.8,30.16,ENE,67,0.0,9.0,94,0.00,,,0.00,Wunderground v.1.15,2013-07-14 07:42:00,
2013-07-14 03:44:00,69.5,67.7,30.17,ENE,68,0.0,9.0,94,0.00,,,0.00,Wunderground v.1.15,2013-07-14 07:44:00,
2013-07-14 03:46:00,69.5,67.7,30.17,ENE,68,0.0,9.0,94,0.00,,,0.00,Wunderground v.1.15,2013-07-14 07:46:00,
2013-07-14 03:50:00,69.5,67.7,30.16,East,88,0.0,9.0,94,0.00,,,0.00,Wunderground v.1.15,2013-07-14 07:50:00,
2013-07-14 03:52:00,69.6,67.8,30.16,East,88,0.0,9.0,94,0.00,,,0.00,Wunderground v.1.15,2013-07-14 07:52:00,
2013-07-14 03:54:00,69.6,67.8,30.17,East,88,0.0,9.0,94,0.00,,,0.00,Wunderground v.1.15,2013-07-14 07:54:00,
2013-07-14 03:56:00,69.6,67.8,30.17,East,88,0.0,9.0,94,0.00,,,0.00,Wunderground v.1.15,2013-07-14 07:56:00,
2013-07-14 04:02:00,69.5,67.7,30.17,East,88,0.0,9.0,94,0.00,,,0.00,Wunderground v.1.15,2013-07-14 08:02:00,
2013-07-14 04:04:00,69.5,67.7,30.17,East,88,0.0,9.0,94,0.00,,,0.00,Wunderground v.1.15,2013-07-14 08:04:00,
2013-07-14 04:10:00,69.4,67.6,30.16,East,88,0.0,9.0,94,0.00,,,0.00,Wunderground v.1.15,2013-07-14 08:10:00,
2013-07-14 04:12:00,69.3,67.5,30.16,East,88,0.0,9.0,94,0.00,,,0.00,Wunderground v.1.15,2013-07-14 08:12:00,
2013-07-14 04:14:00,69.3,67.8,30.16,NE,55,0.0,9.0,95,0.00,,,0.00,Wunderground v.1.15,2013-07-14 08:14:00,
2013-07-14 04:16:00,69.2,67.7,30.16,NE,55,0.0,9.0,95,0.00,,,0.00,Wunderground v.1.15,2013-07-14 08:16:00,
2013-07-14 04:18:00,69.2,67.7,30.16,NE,55,0.0,9.0,95,0.00,,,0.00,Wunderground v.1.15,2013-07-14 08:18:00,
2013-07-14 04:22:00,69.1,67.6,30.16,NE,55,0.0,9.0,95,0.00,,,0.00,Wunderground v.1.15,2013-07-14 08:22:00,
2013-07-14 04:24:00,69.0,67.5,30.16,NE,55,0.0,9.0,95,0.00,,,0.00,Wunderground v.1.15,2013-07-14 08:24:00,
2013-07-14 04:26:00,68.9,67.4,30.16,NE,55,0.0,9.0,95,0.00,,,0.00,Wunderground v.1.15,2013-07-14 08:26:00,
2013-07-14 04:28:00,68.9,67.4,30.16,NE,55,0.0,9.0,95,0.00,,,0.00,Wunderground v.1.15,2013-07-14 08:28:00,
2013-07-14 04:30:00,68.9,67.4,30.16,NE,55,0.0,9.0,95,0.00,,,0.00,Wunderground v.1.15,2013-07-14 08:30:00,
2013-07-14 04:32:00,68.8,67.3,30.16,NE,55,0.0,9.0,95,0.00,,,0.00,Wunderground v.1.15,2013-07-14 08:32:00,
2013-07-14 04:34:00,68.8,67.3,30.16,NE,55,0.0,9.0,95,0.00,,,0.00,Wunderground v.1.15,2013-07-14 08:34:00,
2013-07-14 04:40:00,68.8,67.3,30.16,NE,55,0.0,9.0,95,0.00,,,0.00,Wunderground v.1.15,2013-07-14 08:40:00,
2013-07-14 04:42:00,68.8,67.3,30.16,NE,55,0.0,9.0,95,0.00,,,0.00,Wunderground v.1.15,2013-07-14 08:42:00,
2013-07-14 04:46:00,68.7,67.2,30.16,NE,55,0.0,9.0,95,0.00,,,0.00,Wunderground v.1.15,2013-07-14 08:46:00,
2013-07-14 04:48:00,68.7,67.2,30.16,NE,55,0.0,9.0,95,0.00,,,0.00,Wunderground v.1.15,2013-07-14 08:48:00,
2013-07-14 04:54:00,68.7,67.2,30.16,NE,55,0.0,9.0,95,0.00,,,0.00,Wunderground v.1.15,2013-07-14 08:54:00,
2013-07-14 04:56:00,68.7,67.2,30.16,NE,55,0.0,9.0,95,0.00,,,0.00,Wunderground v.1.15,2013-07-14 08:56:00,
2013-07-14 04:58:00,68.7,67.2,30.16,NE,55,0.0,9.0,95,0.00,,,0.00,Wunderground v.1.15,2013-07-14 08:58:00,
2013-07-14 05:01:00,68.8,67.3,30.16,NE,55,0.0,9.0,95,0.00,,,0.00,Wunderground v.1.15,2013-07-14 09:01:00,
2013-07-14 05:02:00,68.8,67.3,30.16,NE,55,0.0,9.0,95,0.00,,,0.00,Wunderground v.1.15,2013-07-14 09:02:00,
2013-07-14 05:04:00,68.8,67.3,30.16,NE,55,0.0,9.0,95,0.00,,,0.00,Wunderground v.1.15,2013-07-14 09:04:00,
2013-07-14 05:08:00,68.8,67.3,30.17,NE,46,0.0,9.0,95,0.00,,,0.00,Wunderground v.1.15,2013-07-14 09:08:00,
2013-07-14 05:10:00,68.8,67.3,30.17,NE,53,0.0,9.0,95,0.00,,,0.00,Wunderground v.1.15,2013-07-14 09:10:00,
2013-07-14 05:14:00,68.8,67.3,30.17,NE,44,0.0,9.0,95,0.00,,,0.00,Wunderground v.1.15,2013-07-14 09:14:00,
2013-07-14 05:16:00,68.8,67.3,30.17,ENE,71,0.0,9.0,95,0.00,,,0.00,Wunderground v.1.15,2013-07-14 09:16:00,
2013-07-14 05:22:00,68.8,67.3,30.17,ENE,71,0.0,9.0,95,0.00,,,0.00,Wunderground v.1.15,2013-07-14 09:22:00,
2013-07-14 05:24:00,68.8,67.3,30.17,ENE,71,0.0,9.0,95,0.00,,,0.00,Wunderground v.1.15,2013-07-14 09:24:00,
2013-07-14 05:26:00,68.8,67.3,30.17,ENE,71,0.0,9.0,95,0.00,,,0.00,Wunderground v.1.15,2013-07-14 09:26:00,
2013-07-14 05:28:00,68.8,67.3,30.17,ENE,71,0.0,9.0,95,0.00,,,0.00,Wunderground v.1.15,2013-07-14 09:28:00,
2013-07-14 05:30:00,68.8,67.3,30.17,ENE,71,0.0,9.0,95,0.00,,,0.00,Wunderground v.1.15,2013-07-14 09:30:00,
2013-07-14 05:34:00,68.8,67.3,30.17,ENE,71,0.0,9.0,95,0.00,,,0.00,Wunderground v.1.15,2013-07-14 09:34:00,
2013-07-14 05:38:00,68.8,67.3,30.18,ENE,71,0.0,9.0,95,0.00,,,0.00,Wunderground v.1.15,2013-07-14 09:38:00,
2013-07-14 05:40:00,68.8,67.3,30.18,ENE,71,0.0,9.0,95,0.00,,,0.00,Wunderground v.1.15,2013-07-14 09:40:00,
2013-07-14 05:44:00,68.7,67.2,30.18,ENE,71,0.0,9.0,95,0.00,,,0.00,Wunderground v.1.15,2013-07-14 09:44:00,
2013-07-14 05:48:00,68.7,67.2,30.18,ENE,71,0.0,9.0,95,0.00,,,0.00,Wunderground v.1.15,2013-07-14 09:48:00,
2013-07-14 05:52:00,68.7,67.2,30.17,WNW,296,0.0,9.0,95,0.00,,,0.00,Wunderground v.1.15,2013-07-14 09:52:00,
2013-07-14 05:54:00,68.7,67.2,30.18,North,5,0.0,9.0,95,0.00,,,0.00,Wunderground v.1.15,2013-07-14 09:54:00,
2013-07-14 05:56:00,68.7,67.2,30.18,ENE,69,0.0,9.0,95,0.00,,,0.00,Wunderground v.1.15,2013-07-14 09:56:00,
2013-07-14 05:58:00,68.8,67.3,30.18,ENE,69,0.0,9.0,95,0.00,,,0.00,Wunderground v.1.15,2013-07-14 09:58:00,
2013-07-14 06:00:00,68.8,67.3,30.18,ESE,112,0.0,9.0,95,0.00,,,0.00,Wunderground v.1.15,2013-07-14 10:00:00,
2013-07-14 06:02:00,68.8,67.3,30.18,ESE,104,0.0,9.0,95,0.00,,,0.00,Wunderground v.1.15,2013-07-14 10:02:00,
2013-07-14 06:06:00,68.8,67.3,30.18,ESE,104,0.0,9.0,95,0.00,,,0.00,Wunderground v.1.15,2013-07-14 10:06:00,
2013-07-14 06:10:00,68.9,67.4,30.18,ESE,104,0.0,9.0,95,0.00,,,0.00,Wunderground v.1.15,2013-07-14 10:10:00,
2013-07-14 06:12:00,68.9,67.4,30.19,ESE,104,0.0,9.0,95,0.00,,,0.00,Wunderground v.1.15,2013-07-14 10:12:00,
2013-07-14 06:16:00,68.9,67.4,30.19,ESE,104,0.0,9.0,95,0.00,,,0.00,Wunderground v.1.15,2013-07-14 10:16:00,
2013-07-14 06:18:00,68.8,67.3,30.19,ESE,104,0.0,9.0,95,0.00,,,0.00,Wunderground v.1.15,2013-07-14 10:18:00,
2013-07-14 06:22:00,68.8,67.3,30.19,ESE,104,0.0,9.0,95,0.00,,,0.00,Wunderground v.1.15,2013-07-14 10:22:00,
2013-07-14 06:24:00,68.8,67.3,30.19,ESE,104,0.0,9.0,95,0.00,,,0.00,Wunderground v.1.15,2013-07-14 10:24:00,
2013-07-14 06:26:00,68.7,67.2,30.19,ESE,104,0.0,9.0,95,0.00,,,0.00,Wunderground v.1.15,2013-07-14 10:26:00,
2013-07-14 06:28:00,68.7,67.2,30.19,ESE,104,0.0,9.0,95,0.00,,,0.00,Wunderground v.1.15,2013-07-14 10:28:00,
2013-07-14 06:32:00,68.6,67.1,30.19,ESE,104,0.0,9.0,95,0.00,,,0.00,Wunderground v.1.15,2013-07-14 10:32:00,
2013-07-14 06:36:00,68.6,67.1,30.19,ESE,104,0.0,9.0,95,0.00,,,0.00,Wunderground v.1.15,2013-07-14 10:36:00,
2013-07-14 06:38:00,68.6,67.1,30.19,ESE,104,0.0,9.0,95,0.00,,,0.00,Wunderground v.1.15,2013-07-14 10:38:00,
2013-07-14 06:42:00,68.5,67.0,30.19,ESE,104,0.0,9.0,95,0.00,,,0.00,Wunderground v.1.15,2013-07-14 10:42:00,
2013-07-14 06:44:00,68.5,67.0,30.19,ESE,104,0.0,9.0,95,0.00,,,0.00,Wunderground v.1.15,2013-07-14 10:44:00,
2013-07-14 06:46:00,68.5,67.0,30.19,ESE,104,0.0,9.0,95,0.00,,,0.00,Wunderground v.1.15,2013-07-14 10:46:00,
2013-07-14 06:48:00,68.5,67.3,30.19,ESE,104,0.0,9.0,96,0.00,,,0.00,Wunderground v.1.15,2013-07-14 10:48:00,
2013-07-14 06:50:00,68.5,67.3,30.19,ESE,104,0.0,9.0,96,0.00,,,0.00,Wunderground v.1.15,2013-07-14 10:50:00,
2013-07-14 06:56:00,68.5,67.3,30.19,ESE,104,0.0,9.0,96,0.00,,,0.00,Wunderground v.1.15,2013-07-14 10:56:00,
2013-07-14 06:58:00,68.5,67.3,30.19,ESE,104,0.0,9.0,96,0.00,,,0.00,Wunderground v.1.15,2013-07-14 10:58:00,
2013-07-14 07:04:00,68.5,67.3,30.19,ESE,104,0.0,9.0,96,0.00,,,0.00,Wunderground v.1.15,2013-07-14 11:04:00,
2013-07-14 07:06:00,68.5,67.3,30.19,ESE,104,0.0,9.0,96,0.00,,,0.00,Wunderground v.1.15,2013-07-14 11:06:00,
2013-07-14 07:10:00,68.5,67.3,30.19,ESE,104,0.0,9.0,96,0.00,,,0.00,Wunderground v.1.15,2013-07-14 11:10:00,
2013-07-14 07:12:00,68.5,67.3,30.20,ESE,104,0.0,9.0,96,0.00,,,0.00,Wunderground v.1.15,2013-07-14 11:12:00,
2013-07-14 07:16:00,68.5,67.3,30.20,ESE,104,0.0,9.0,96,0.00,,,0.00,Wunderground v.1.15,2013-07-14 11:16:00,
2013-07-14 07:18:00,68.6,67.4,30.20,ESE,104,0.0,9.0,96,0.00,,,0.00,Wunderground v.1.15,2013-07-14 11:18:00,
2013-07-14 07:22:00,68.7,67.5,30.20,ESE,104,0.0,9.0,96,0.00,,,0.00,Wunderground v.1.15,2013-07-14 11:22:00,
2013-07-14 07:24:00,68.7,67.5,30.20,ESE,104,0.0,9.0,96,0.00,,,0.00,Wunderground v.1.15,2013-07-14 11:24:00,
2013-07-14 07:26:00,68.7,67.5,30.20,ESE,104,0.0,9.0,96,0.00,,,0.00,Wunderground v.1.15,2013-07-14 11:26:00,
2013-07-14 07:28:00,68.8,67.6,30.20,ESE,104,0.0,9.0,96,0.00,,,0.00,Wunderground v.1.15,2013-07-14 11:28:00,
2013-07-14 07:30:00,68.8,67.6,30.20,ESE,104,0.0,9.0,96,0.00,,,0.00,Wunderground v.1.15,2013-07-14 11:30:00,
2013-07-14 07:34:00,68.8,67.6,30.20,ESE,104,0.0,9.0,96,0.00,,,0.00,Wunderground v.1.15,2013-07-14 11:34:00,
2013-07-14 07:36:00,68.8,67.6,30.20,ESE,104,0.0,9.0,96,0.00,,,0.00,Wunderground v.1.15,2013-07-14 11:36:00,
2013-07-14 07:38:00,68.9,67.7,30.21,ESE,104,0.0,9.0,96,0.00,,,0.00,Wunderground v.1.15,2013-07-14 11:38:00,
2013-07-14 07:42:00,68.9,67.7,30.21,ESE,104,0.0,9.0,96,0.00,,,0.00,Wunderground v.1.15,2013-07-14 11:42:00,
2013-07-14 07:44:00,68.9,67.7,30.21,ESE,104,0.0,9.0,96,0.00,,,0.00,Wunderground v.1.15,2013-07-14 11:44:00,
2013-07-14 07:48:00,69.0,67.8,30.21,ESE,103,0.0,9.0,96,0.00,,,0.00,Wunderground v.1.15,2013-07-14 11:48:00,
2013-07-14 07:50:00,69.1,67.9,30.21,ESE,103,0.0,9.0,96,0.00,,,0.00,Wunderground v.1.15,2013-07-14 11:50:00,
2013-07-14 07:52:00,69.2,68.0,30.21,ESE,103,0.0,9.0,96,0.00,,,0.00,Wunderground v.1.15,2013-07-14 11:52:00,
2013-07-14 07:54:00,69.3,68.1,30.21,ESE,103,0.0,9.0,96,0.00,,,0.00,Wunderground v.1.15,2013-07-14 11:54:00,
2013-07-14 07:56:00,69.4,68.2,30.21,ESE,103,0.0,9.0,96,0.00,,,0.00,Wunderground v.1.15,2013-07-14 11:56:00,
2013-07-14 07:58:00,69.4,68.2,30.21,ESE,103,0.0,9.0,96,0.00,,,0.00,Wunderground v.1.15,2013-07-14 11:58:00,
2013-07-14 08:00:00,69.5,68.3,30.21,ESE,103,0.0,9.0,96,0.00,,,0.00,Wunderground v.1.15,2013-07-14 12:00:00,
2013-07-14 08:06:00,69.7,68.5,30.21,ESE,103,0.0,9.0,96,0.00,,,0.00,Wunderground v.1.15,2013-07-14 12:06:00,
2013-07-14 08:08:00,69.7,68.5,30.21,ESE,103,0.0,9.0,96,0.00,,,0.00,Wunderground v.1.15,2013-07-14 12:08:00,
2013-07-14 08:12:00,69.9,68.7,30.22,ESE,103,0.0,9.0,96,0.00,,,0.00,Wunderground v.1.15,2013-07-14 12:12:00,
2013-07-14 08:14:00,70.0,68.8,30.22,ESE,103,0.0,9.0,96,0.00,,,0.00,Wunderground v.1.15,2013-07-14 12:14:00,
2013-07-14 08:18:00,70.2,69.0,30.22,ESE,103,0.0,9.0,96,0.00,,,0.00,Wunderground v.1.15,2013-07-14 12:18:00,
2013-07-14 08:20:00,70.3,69.1,30.22,ESE,103,0.0,9.0,96,0.00,,,0.00,Wunderground v.1.15,2013-07-14 12:20:00,
2013-07-14 08:26:00,70.8,69.3,30.22,ESE,103,0.0,9.0,95,0.00,,,0.00,Wunderground v.1.15,2013-07-14 12:26:00,
2013-07-14 08:32:00,71.1,69.6,30.22,ESE,103,0.0,9.0,95,0.00,,,0.00,Wunderground v.1.15,2013-07-14 12:32:00,
2013-07-14 08:34:00,71.3,69.8,30.22,ESE,103,0.0,9.0,95,0.00,,,0.00,Wunderground v.1.15,2013-07-14 12:34:00,
2013-07-14 08:40:00,71.4,69.6,30.22,ESE,103,0.0,9.0,94,0.00,,,0.00,Wunderground v.1.15,2013-07-14 12:40:00,
2013-07-14 08:46:00,71.6,69.8,30.22,ESE,103,0.0,9.0,94,0.00,,,0.00,Wunderground v.1.15,2013-07-14 12:46:00,
2013-07-14 08:50:00,71.6,69.8,30.23,ESE,103,0.0,9.0,94,0.00,,,0.00,Wunderground v.1.15,2013-07-14 12:50:00,
2013-07-14 08:52:00,71.7,69.9,30.23,ESE,103,0.0,9.0,94,0.00,,,0.00,Wunderground v.1.15,2013-07-14 12:52:00,
2013-07-14 08:54:00,71.7,69.9,30.23,ESE,103,0.0,9.0,94,0.00,,,0.00,Wunderground v.1.15,2013-07-14 12:54:00,
2013-07-14 08:56:00,71.7,69.9,30.23,ESE,103,0.0,9.0,94,0.00,,,0.00,Wunderground v.1.15,2013-07-14 12:56:00,
2013-07-14 08:58:00,71.8,70.0,30.23,ESE,103,0.0,9.0,94,0.00,,,0.00,Wunderground v.1.15,2013-07-14 12:58:00,
2013-07-14 09:01:00,71.9,70.1,30.23,ESE,102,0.0,9.0,94,0.00,,,0.00,Wunderground v.1.15,2013-07-14 13:01:00,
2013-07-14 09:02:00,71.9,70.1,30.23,ESE,102,0.0,9.0,94,0.00,,,0.00,Wunderground v.1.15,2013-07-14 13:02:00,
2013-07-14 09:04:00,72.0,69.9,30.23,ESE,102,0.0,9.0,93,0.00,,,0.00,Wunderground v.1.15,2013-07-14 13:04:00,
2013-07-14 09:06:00,72.1,70.0,30.23,ESE,102,0.0,9.0,93,0.00,,,0.00,Wunderground v.1.15,2013-07-14 13:06:00,
2013-07-14 09:08:00,72.2,70.1,30.23,ESE,102,0.0,9.0,93,0.00,,,0.00,Wunderground v.1.15,2013-07-14 13:08:00,
2013-07-14 09:14:00,72.5,70.4,30.23,ESE,102,0.0,9.0,93,0.00,,,0.00,Wunderground v.1.15,2013-07-14 13:14:00,
2013-07-14 09:16:00,72.7,70.9,30.23,ESE,102,0.0,9.0,94,0.00,,,0.00,Wunderground v.1.15,2013-07-14 13:16:00,
2013-07-14 09:18:00,72.8,70.7,30.23,ESE,102,0.0,9.0,93,0.00,,,0.00,Wunderground v.1.15,2013-07-14 13:18:00,
2013-07-14 09:22:00,73.1,70.6,30.23,ENE,71,0.0,9.0,92,0.00,,,0.00,Wunderground v.1.15,2013-07-14 13:22:00,
2013-07-14 09:24:00,73.3,70.8,30.23,ENE,71,0.0,9.0,92,0.00,,,0.00,Wunderground v.1.15,2013-07-14 13:24:00,
2013-07-14 09:26:00,73.4,71.3,30.23,ENE,71,0.0,9.0,93,0.00,,,0.00,Wunderground v.1.15,2013-07-14 13:26:00,
2013-07-14 09:28:00,73.5,71.0,30.23,ENE,60,0.0,9.0,92,0.00,,,0.00,Wunderground v.1.15,2013-07-14 13:28:00,
2013-07-14 09:34:00,74.0,71.5,30.23,ESE,117,0.0,9.0,92,0.00,,,0.00,Wunderground v.1.15,2013-07-14 13:34:00,
2013-07-14 09:36:00,74.2,71.7,30.23,ESE,117,0.0,9.0,92,0.00,,,0.00,Wunderground v.1.15,2013-07-14 13:36:00,
2013-07-14 09:38:00,74.3,71.8,30.23,ENE,67,0.0,9.0,92,0.00,,,0.00,Wunderground v.1.15,2013-07-14 13:38:00,
2013-07-14 09:40:00,74.4,71.9,30.23,East,80,0.0,9.0,92,0.00,,,0.00,Wunderground v.1.15,2013-07-14 13:40:00,
2013-07-14 09:42:00,74.4,71.6,30.23,NNE,22,0.0,9.0,91,0.00,,,0.00,Wunderground v.1.15,2013-07-14 13:42:00,
2013-07-14 09:46:00,74.5,71.7,30.23,NNE,22,0.0,9.0,91,0.00,,,0.00,Wunderground v.1.15,2013-07-14 13:46:00,
2013-07-14 09:48:00,74.7,71.9,30.23,NNE,22,0.0,9.0,91,0.00,,,0.00,Wunderground v.1.15,2013-07-14 13:48:00,
2013-07-14 09:52:00,74.9,72.1,30.24,ENE,71,0.0,9.0,91,0.00,,,0.00,Wunderground v.1.15,2013-07-14 13:52:00,
2013-07-14 09:54:00,75.1,72.3,30.24,ENE,67,0.0,9.0,91,0.00,,,0.00,Wunderground v.1.15,2013-07-14 13:54:00,
2013-07-14 09:58:00,75.4,72.3,30.24,ENE,59,0.0,9.0,90,0.00,,,0.00,Wunderground v.1.15,2013-07-14 13:58:00,
2013-07-14 10:00:00,75.5,72.0,30.24,ENE,57,0.0,9.0,89,0.00,,,0.00,Wunderground v.1.15,2013-07-14 14:00:00,
2013-07-14 10:02:00,75.5,72.0,30.24,NW,315,0.0,9.0,89,0.00,,,0.00,Wunderground v.1.15,2013-07-14 14:02:00,
2013-07-14 10:04:00,75.6,72.1,30.24,NW,316,0.0,9.0,89,0.00,,,0.00,Wunderground v.1.15,2013-07-14 14:04:00,
2013-07-14 10:10:00,75.9,72.4,30.24,NW,312,0.0,9.0,89,0.00,,,0.00,Wunderground v.1.15,2013-07-14 14:10:00,
2013-07-14 10:12:00,76.1,72.6,30.23,NW,312,0.0,9.0,89,0.00,,,0.00,Wunderground v.1.15,2013-07-14 14:12:00,
2013-07-14 10:14:00,76.2,72.4,30.23,NW,312,0.0,9.0,88,0.00,,,0.00,Wunderground v.1.15,2013-07-14 14:14:00,
2013-07-14 10:16:00,76.4,72.9,30.23,NW,312,0.0,9.0,89,0.00,,,0.00,Wunderground v.1.15,2013-07-14 14:16:00,
2013-07-14 10:18:00,76.7,73.2,30.24,NW,312,0.0,9.0,89,0.00,,,0.00,Wunderground v.1.15,2013-07-14 14:18:00,
2013-07-14 10:22:00,77.1,73.3,30.23,NW,308,0.0,9.0,88,0.00,,,0.00,Wunderground v.1.15,2013-07-14 14:22:00,
2013-07-14 10:24:00,77.4,73.6,30.23,SSW,202,0.0,9.0,88,0.00,,,0.00,Wunderground v.1.15,2013-07-14 14:24:00,
2013-07-14 10:26:00,77.5,73.0,30.23,West,261,1.0,9.0,86,0.00,,,0.00,Wunderground v.1.15,2013-07-14 14:26:00,
2013-07-14 10:28:00,77.6,73.1,30.23,ESE,121,1.0,9.0,86,0.00,,,0.00,Wunderground v.1.15,2013-07-14 14:28:00,
2013-07-14 10:30:00,77.8,73.3,30.23,SSW,193,1.0,1.0,86,0.00,,,0.00,Wunderground v.1.15,2013-07-14 14:30:00,
2013-07-14 10:36:00,77.8,73.3,30.23,West,260,0.0,9.0,86,0.00,,,0.00,Wunderground v.1.15,2013-07-14 14:36:00,
2013-07-14 10:38:00,77.9,73.4,30.23,NNW,342,0.0,9.0,86,0.00,,,0.00,Wunderground v.1.15,2013-07-14 14:38:00,
2013-07-14 10:42:00,78.1,73.2,30.23,SSW,211,0.0,9.0,85,0.00,,,0.00,Wunderground v.1.15,2013-07-14 14:42:00,
2013-07-14 10:46:00,77.9,73.0,30.23,SW,216,1.0,9.0,85,0.00,,,0.00,Wunderground v.1.15,2013-07-14 14:46:00,
2013-07-14 10:48:00,77.9,73.0,30.23,SSW,194,1.0,9.0,85,0.00,,,0.00,Wunderground v.1.15,2013-07-14 14:48:00,
2013-07-14 10:52:00,78.0,73.1,30.23,SSW,213,1.0,9.0,85,0.00,,,0.00,Wunderground v.1.15,2013-07-14 14:52:00,
2013-07-14 10:54:00,78.3,74.1,30.23,SW,217,1.0,9.0,87,0.00,,,0.00,Wunderground v.1.15,2013-07-14 14:54:00,
2013-07-14 10:56:00,78.4,74.2,30.23,South,175,1.0,9.0,87,0.00,,,0.00,Wunderground v.1.15,2013-07-14 14:56:00,
2013-07-14 11:02:00,79.0,74.1,30.23,SSW,212,1.0,9.0,85,0.00,,,0.00,Wunderground v.1.15,2013-07-14 15:02:00,
2013-07-14 11:06:00,79.3,74.4,30.23,WSW,257,1.0,9.0,85,0.00,,,0.00,Wunderground v.1.15,2013-07-14 15:06:00,
2013-07-14 11:08:00,79.5,74.6,30.23,ESE,117,1.0,9.0,85,0.00,,,0.00,Wunderground v.1.15,2013-07-14 15:08:00,
2013-07-14 11:12:00,79.4,73.8,30.23,SSW,209,1.0,9.0,83,0.00,,,0.00,Wunderground v.1.15,2013-07-14 15:12:00,
2013-07-14 11:14:00,79.3,73.7,30.23,WSW,246,2.0,9.0,83,0.00,,,0.00,Wunderground v.1.15,2013-07-14 15:14:00,
2013-07-14 11:16:00,79.3,74.0,30.23,SSW,213,2.0,9.0,84,0.00,,,0.00,Wunderground v.1.15,2013-07-14 15:16:00,
2013-07-14 11:18:00,79.3,74.0,30.23,SW,215,2.0,9.0,84,0.00,,,0.00,Wunderground v.1.15,2013-07-14 15:18:00,
2013-07-14 11:20:00,79.6,75.0,30.23,SW,215,2.0,2.0,86,0.00,,,0.00,Wunderground v.1.15,2013-07-14 15:20:00,
2013-07-14 11:24:00,80.0,74.7,30.24,SW,232,0.0,9.0,84,0.00,,,0.00,Wunderground v.1.15,2013-07-14 15:24:00,
2013-07-14 11:26:00,79.9,73.5,30.24,SW,217,1.0,9.0,81,0.00,,,0.00,Wunderground v.1.15,2013-07-14 15:26:00,
2013-07-14 11:30:00,79.7,73.7,30.24,South,190,1.0,9.0,82,0.00,,,0.00,Wunderground v.1.15,2013-07-14 15:30:00,
2013-07-14 11:32:00,79.6,73.6,30.24,SW,235,2.0,9.0,82,0.00,,,0.00,Wunderground v.1.15,2013-07-14 15:32:00,
2013-07-14 11:34:00,79.6,74.7,30.24,WSW,239,2.0,9.0,85,0.00,,,0.00,Wunderground v.1.15,2013-07-14 15:34:00,
2013-07-14 11:36:00,79.8,75.2,30.24,SSW,193,2.0,9.0,86,0.00,,,0.00,Wunderground v.1.15,2013-07-14 15:36:00,
2013-07-14 11:40:00,80.3,75.0,30.23,SW,219,1.0,1.0,84,0.00,,,0.00,Wunderground v.1.15,2013-07-14 15:40:00,
2013-07-14 11:42:00,80.4,74.4,30.23,WSW,240,0.0,9.0,82,0.00,,,0.00,Wunderground v.1.15,2013-07-14 15:42:00,
2013-07-14 11:44:00,80.6,75.0,30.23,SW,221,0.0,9.0,83,0.00,,,0.00,Wunderground v.1.15,2013-07-14 15:44:00,
2013-07-14 11:46:00,80.6,74.2,30.23,SSW,205,1.0,9.0,81,0.00,,,0.00,Wunderground v.1.15,2013-07-14 15:46:00,
2013-07-14 11:52:00,80.3,73.6,30.23,SSW,210,2.0,2.0,80,0.00,,,0.00,Wunderground v.1.15,2013-07-14 15:52:00,
2013-07-14 11:56:00,80.4,73.7,30.23,SW,216,2.0,9.0,80,0.00,,,0.00,Wunderground v.1.15,2013-07-14 15:56:00,
2013-07-14 11:58:00,80.5,74.1,30.23,SW,234,2.0,9.0,81,0.00,,,0.00,Wunderground v.1.15,2013-07-14 15:58:00,
2013-07-14 12:01:00,80.6,74.6,30.23,SSW,211,2.0,9.0,82,0.00,,,0.00,Wunderground v.1.15,2013-07-14 16:01:00,
2013-07-14 12:06:00,80.7,74.0,30.23,SSW,213,2.0,9.0,80,0.00,,,0.00,Wunderground v.1.15,2013-07-14 16:06:00,
2013-07-14 12:08:00,80.8,73.7,30.23,SSW,193,3.0,9.0,79,0.00,,,0.00,Wunderground v.1.15,2013-07-14 16:08:00,
2013-07-14 12:10:00,80.8,73.7,30.23,WSW,238,3.0,3.0,79,0.00,,,0.00,Wunderground v.1.15,2013-07-14 16:10:00,
2013-07-14 12:12:00,80.9,74.1,30.23,SSW,205,3.0,9.0,80,0.00,,,0.00,Wunderground v.1.15,2013-07-14 16:12:00,
2013-07-14 12:14:00,81.0,73.9,30.23,South,187,3.0,9.0,79,0.00,,,0.00,Wunderground v.1.15,2013-07-14 16:14:00,
2013-07-14 12:16:00,81.2,74.8,30.23,SSW,204,3.0,9.0,81,0.00,,,0.00,Wunderground v.1.15,2013-07-14 16:16:00,
2013-07-14 12:18:00,81.2,74.1,30.23,SSW,211,2.0,9.0,79,0.00,,,0.00,Wunderground v.1.15,2013-07-14 16:18:00,
2013-07-14 12:20:00,81.4,74.3,30.23,SW,231,2.0,2.0,79,0.00,,,0.00,Wunderground v.1.15,2013-07-14 16:20:00,
2013-07-14 12:24:00,81.6,74.8,30.23,West,275,2.0,9.0,80,0.00,,,0.00,Wunderground v.1.15,2013-07-14 16:24:00,
2013-07-14 12:26:00,81.7,75.3,30.23,SW,214,2.0,9.0,81,0.00,,,0.00,Wunderground v.1.15,2013-07-14 16:26:00,
2013-07-14 12:28:00,81.9,75.1,30.23,SW,222,1.0,9.0,80,0.00,,,0.00,Wunderground v.1.15,2013-07-14 16:28:00,
2013-07-14 12:30:00,82.2,75.0,30.23,West,271,1.0,1.0,79,0.00,,,0.00,Wunderground v.1.15,2013-07-14 16:30:00,
2013-07-14 12:34:00,82.7,75.1,30.23,SSW,202,1.0,9.0,78,0.00,,,0.00,Wunderground v.1.15,2013-07-14 16:34:00,
2013-07-14 12:36:00,83.0,75.0,30.23,West,259,0.0,9.0,77,0.00,,,0.00,Wunderground v.1.15,2013-07-14 16:36:00,
2013-07-14 12:38:00,83.2,75.6,30.23,SSW,205,0.0,9.0,78,0.00,,,0.00,Wunderground v.1.15,2013-07-14 16:38:00,
2013-07-14 12:40:00,83.4,74.2,30.23,SSW,203,1.0,1.0,74,0.00,,,0.00,Wunderground v.1.15,2013-07-14 16:40:00,
2013-07-14 12:46:00,83.3,75.7,30.23,West,265,1.0,9.0,78,0.00,,,0.00,Wunderground v.1.15,2013-07-14 16:46:00,
2013-07-14 12:48:00,83.7,76.5,30.23,South,174,1.0,9.0,79,0.00,,,0.00,Wunderground v.1.15,2013-07-14 16:48:00,
2013-07-14 12:52:00,84.3,76.3,30.23,South,178,0.0,9.0,77,0.00,,,0.00,Wunderground v.1.15,2013-07-14 16:52:00,
2013-07-14 12:54:00,84.8,76.8,30.23,NE,36,0.0,9.0,77,0.00,,,0.00,Wunderground v.1.15,2013-07-14 16:54:00,
2013-07-14 12:58:00,86.1,77.2,30.23,NE,36,0.0,9.0,75,0.00,,,0.00,Wunderground v.1.15,2013-07-14 16:58:00,
2013-07-14 13:00:00,86.3,76.6,30.23,South,188,0.0,9.0,73,0.00,,,0.00,Wunderground v.1.15,2013-07-14 17:00:00,
2013-07-14 13:02:00,86.4,76.3,30.23,SSW,199,0.0,9.0,72,0.00,,,0.00,Wunderground v.1.15,2013-07-14 17:02:00,
2013-07-14 13:04:00,86.5,76.4,30.23,WSW,237,0.0,9.0,72,0.00,,,0.00,Wunderground v.1.15,2013-07-14 17:04:00,
2013-07-14 13:06:00,86.6,76.5,30.23,NW,309,0.0,9.0,72,0.00,,,0.00,Wunderground v.1.15,2013-07-14 17:06:00,
2013-07-14 13:08:00,86.8,75.0,30.22,WSW,244,0.0,9.0,68,0.00,,,0.00,Wunderground v.1.15,2013-07-14 17:08:00,
2013-07-14 13:10:00,86.5,74.7,30.22,SSW,213,0.0,9.0,68,0.00,,,0.00,Wunderground v.1.15,2013-07-14 17:10:00,
2013-07-14 13:12:00,86.1,74.3,30.22,SSE,168,1.0,9.0,68,0.00,,,0.00,Wunderground v.1.15,2013-07-14 17:12:00,
2013-07-14 13:16:00,86.1,75.2,30.22,South,180,1.0,9.0,70,0.00,,,0.00,Wunderground v.1.15,2013-07-14 17:16:00,
2013-07-14 13:20:00,86.2,74.4,30.22,WSW,248,0.0,9.0,68,0.00,,,0.00,Wunderground v.1.15,2013-07-14 17:20:00,
2013-07-14 13:22:00,86.1,74.3,30.22,SSW,210,0.0,9.0,68,0.00,,,0.00,Wunderground v.1.15,2013-07-14 17:22:00,
2013-07-14 13:26:00,85.3,74.0,30.22,West,264,1.0,9.0,69,0.00,,,0.00,Wunderground v.1.15,2013-07-14 17:26:00,
2013-07-14 13:28:00,85.0,74.5,30.22,South,184,1.0,9.0,71,0.00,,,0.00,Wunderground v.1.15,2013-07-14 17:28:00,
2013-07-14 13:30:00,84.9,74.4,30.22,SW,215,2.0,9.0,71,0.00,,,0.00,Wunderground v.1.15,2013-07-14 17:30:00,
2013-07-14 13:32:00,84.6,72.9,30.22,SW,217,3.0,9.0,68,0.00,,,0.00,Wunderground v.1.15,2013-07-14 17:32:00,
2013-07-14 13:34:00,84.5,74.1,30.22,SW,222,2.0,9.0,71,0.00,,,0.00,Wunderground v.1.15,2013-07-14 17:34:00,
2013-07-14 13:38:00,84.8,74.8,30.22,South,188,2.0,9.0,72,0.00,,,0.00,Wunderground v.1.15,2013-07-14 17:38:00,
2013-07-14 13:40:00,84.9,74.4,30.22,South,179,1.0,1.0,71,0.00,,,0.00,Wunderground v.1.15,2013-07-14 17:40:00,
2013-07-14 13:42:00,85.3,75.2,30.22,SW,230,1.0,9.0,72,0.00,,,0.00,Wunderground v.1.15,2013-07-14 17:42:00,
2013-07-14 13:46:00,85.9,75.8,30.22,SSW,205,1.0,9.0,72,0.00,,,0.00,Wunderground v.1.15,2013-07-14 17:46:00,
2013-07-14 13:48:00,85.9,75.0,30.22,SSW,207,1.0,9.0,70,0.00,,,0.00,Wunderground v.1.15,2013-07-14 17:48:00,
2013-07-14 13:54:00,86.4,75.0,30.22,SW,226,0.0,9.0,69,0.00,,,0.00,Wunderground v.1.15,2013-07-14 17:54:00,
2013-07-14 13:56:00,86.5,76.0,30.22,SW,225,0.0,9.0,71,0.00,,,0.00,Wunderground v.1.15,2013-07-14 17:56:00,
2013-07-14 13:58:00,86.9,76.8,30.22,SW,226,0.0,9.0,72,0.00,,,0.00,Wunderground v.1.15,2013-07-14 17:58:00,
2013-07-14 14:02:00,87.8,76.4,30.22,SW,226,0.0,9.0,69,0.00,,,0.00,Wunderground v.1.15,2013-07-14 18:02:00,
2013-07-14 14:04:00,88.1,76.6,30.22,SW,226,0.0,9.0,69,0.00,,,0.00,Wunderground v.1.15,2013-07-14 18:04:00,
2013-07-14 14:06:00,88.4,77.8,30.22,SW,226,0.0,9.0,71,0.00,,,0.00,Wunderground v.1.15,2013-07-14 18:06:00,
2013-07-14 14:08:00,88.6,77.1,30.22,SW,226,0.0,9.0,69,0.00,,,0.00,Wunderground v.1.15,2013-07-14 18:08:00,
2013-07-14 14:10:00,88.8,78.6,30.22,SW,226,0.0,9.0,72,0.00,,,0.00,Wunderground v.1.15,2013-07-14 18:10:00,
2013-07-14 14:12:00,89.2,79.0,30.22,SW,226,0.0,9.0,72,0.00,,,0.00,Wunderground v.1.15,2013-07-14 18:12:00,
2013-07-14 14:14:00,89.6,77.2,30.22,SW,225,0.0,9.0,67,0.00,,,0.00,Wunderground v.1.15,2013-07-14 18:14:00,
2013-07-14 14:16:00,90.0,77.1,30.22,ENE,69,0.0,9.0,66,0.00,,,0.00,Wunderground v.1.15,2013-07-14 18:16:00,
2013-07-14 14:18:00,90.4,78.4,30.22,SSW,205,0.0,9.0,68,0.00,,,0.00,Wunderground v.1.15,2013-07-14 18:18:00,
2013-07-14 14:20:00,90.5,76.7,30.22,SSW,204,0.0,9.0,64,0.00,,,0.00,Wunderground v.1.15,2013-07-14 18:20:00,
2013-07-14 14:24:00,90.3,76.9,30.22,North,10,0.0,9.0,65,0.00,,,0.00,Wunderground v.1.15,2013-07-14 18:24:00,
2013-07-14 14:26:00,90.3,76.9,30.22,WNW,286,0.0,9.0,65,0.00,,,0.00,Wunderground v.1.15,2013-07-14 18:26:00,
2013-07-14 14:30:00,90.2,77.3,30.22,ENE,59,0.0,9.0,66,0.00,,,0.00,Wunderground v.1.15,2013-07-14 18:30:00,
2013-07-14 14:32:00,90.3,77.4,30.22,East,80,0.0,9.0,66,0.00,,,0.00,Wunderground v.1.15,2013-07-14 18:32:00,
2013-07-14 14:38:00,89.1,74.4,30.21,South,190,1.0,9.0,62,0.00,,,0.00,Wunderground v.1.15,2013-07-14 18:38:00,
2013-07-14 14:44:00,88.7,76.8,30.22,NE,55,1.0,9.0,68,0.00,,,0.00,Wunderground v.1.15,2013-07-14 18:44:00,
2013-07-14 14:50:00,88.2,76.7,30.22,WNW,285,0.0,9.0,69,0.00,,,0.00,Wunderground v.1.15,2013-07-14 18:50:00,
2013-07-14 14:52:00,87.8,76.8,30.22,West,267,0.0,9.0,70,0.00,,,0.00,Wunderground v.1.15,2013-07-14 18:52:00,
2013-07-14 14:56:00,87.0,76.5,30.22,West,267,0.0,9.0,71,0.00,,,0.00,Wunderground v.1.15,2013-07-14 18:56:00,
2013-07-14 14:58:00,86.1,75.6,30.22,WSW,257,0.0,9.0,71,0.00,,,0.00,Wunderground v.1.15,2013-07-14 18:58:00,
2013-07-14 15:01:00,85.0,75.0,30.22,WSW,239,0.0,9.0,72,0.00,,,0.00,Wunderground v.1.15,2013-07-14 19:01:00,
2013-07-14 15:02:00,84.7,77.5,30.22,South,189,0.0,9.0,79,0.00,,,0.00,Wunderground v.1.15,2013-07-14 19:02:00,
2013-07-14 15:06:00,84.6,76.2,30.22,SW,225,1.0,9.0,76,0.00,,,0.00,Wunderground v.1.15,2013-07-14 19:06:00,
2013-07-14 15:08:00,84.8,75.6,30.22,SW,231,1.0,9.0,74,0.00,,,0.00,Wunderground v.1.15,2013-07-14 19:08:00,
2013-07-14 15:12:00,84.8,75.2,30.21,WSW,252,1.0,9.0,73,0.00,,,0.00,Wunderground v.1.15,2013-07-14 19:12:00,
2013-07-14 15:16:00,84.5,74.9,30.21,West,265,1.0,9.0,73,0.00,,,0.00,Wunderground v.1.15,2013-07-14 19:16:00,
2013-07-14 15:18:00,84.4,75.6,30.21,West,265,1.0,9.0,75,0.00,,,0.00,Wunderground v.1.15,2013-07-14 19:18:00,
2013-07-14 15:20:00,84.3,74.7,30.22,West,265,0.0,9.0,73,0.00,,,0.00,Wunderground v.1.15,2013-07-14 19:20:00,
2013-07-14 15:22:00,84.4,75.2,30.21,West,265,0.0,9.0,74,0.00,,,0.00,Wunderground v.1.15,2013-07-14 19:22:00,
2013-07-14 15:26:00,84.6,75.0,30.21,West,265,0.0,9.0,73,0.00,,,0.00,Wunderground v.1.15,2013-07-14 19:26:00,
2013-07-14 15:28:00,84.7,76.3,30.22,West,265,0.0,9.0,76,0.00,,,0.00,Wunderground v.1.15,2013-07-14 19:28:00,
2013-07-14 15:30:00,85.0,76.6,30.22,West,265,0.0,9.0,76,0.00,,,0.00,Wunderground v.1.15,2013-07-14 19:30:00,
2013-07-14 15:34:00,85.7,78.0,30.22,East,86,0.0,9.0,78,0.00,,,0.00,Wunderground v.1.15,2013-07-14 19:34:00,
2013-07-14 15:36:00,85.8,77.0,30.22,SW,232,0.0,9.0,75,0.00,,,0.00,Wunderground v.1.15,2013-07-14 19:36:00,
2013-07-14 15:42:00,85.1,75.9,30.22,ESE,111,0.0,9.0,74,0.00,,,0.00,Wunderground v.1.15,2013-07-14 19:42:00,
2013-07-14 15:44:00,84.8,76.4,30.22,East,81,0.0,9.0,76,0.00,,,0.00,Wunderground v.1.15,2013-07-14 19:44:00,
2013-07-14 15:50:00,83.4,74.2,30.22,NW,315,0.0,9.0,74,0.00,,,0.00,Wunderground v.1.15,2013-07-14 19:50:00,
2013-07-14 15:52:00,83.0,74.6,30.21,NW,315,0.0,9.0,76,0.00,,,0.00,Wunderground v.1.15,2013-07-14 19:52:00,
2013-07-14 15:54:00,82.7,75.1,30.21,NW,316,0.0,9.0,78,0.00,,,0.00,Wunderground v.1.15,2013-07-14 19:54:00,
2013-07-14 15:56:00,82.5,74.9,30.21,NW,316,0.0,9.0,78,0.00,,,0.00,Wunderground v.1.15,2013-07-14 19:56:00,
2013-07-14 16:02:00,82.0,75.6,30.21,NW,313,0.0,9.0,81,0.00,,,0.00,Wunderground v.1.15,2013-07-14 20:02:00,
2013-07-14 16:04:00,81.9,75.5,30.21,NW,313,0.0,9.0,81,0.00,,,0.00,Wunderground v.1.15,2013-07-14 20:04:00,
2013-07-14 16:08:00,81.4,75.0,30.21,WSW,257,0.0,9.0,81,0.00,,,0.00,Wunderground v.1.15,2013-07-14 20:08:00,
2013-07-14 16:10:00,81.1,74.7,30.21,WSW,254,0.0,9.0,81,0.00,,,0.00,Wunderground v.1.15,2013-07-14 20:10:00,
2013-07-14 16:14:00,80.9,76.0,30.20,WSW,258,0.0,9.0,85,0.00,,,0.00,Wunderground v.1.15,2013-07-14 20:14:00,
2013-07-14 16:18:00,81.8,77.2,30.20,West,259,0.0,9.0,86,0.00,,,0.00,Wunderground v.1.15,2013-07-14 20:18:00,
2013-07-14 16:20:00,82.3,76.3,30.20,West,259,0.0,9.0,82,0.00,,,0.00,Wunderground v.1.15,2013-07-14 20:20:00,
2013-07-14 16:24:00,83.6,75.6,30.20,West,259,0.0,9.0,77,0.00,,,0.00,Wunderground v.1.15,2013-07-14 20:24:00,
2013-07-14 16:26:00,84.3,76.3,30.20,West,259,0.0,9.0,77,0.00,,,0.00,Wunderground v.1.15,2013-07-14 20:26:00,
2013-07-14 16:30:00,85.7,77.7,30.20,West,259,0.0,9.0,77,0.00,,,0.00,Wunderground v.1.15,2013-07-14 20:30:00,
2013-07-14 16:34:00,87.1,78.6,30.20,West,259,0.0,9.0,76,0.00,,,0.00,Wunderground v.1.15,2013-07-14 20:34:00,
2013-07-14 16:36:00,87.7,77.5,30.20,West,269,0.0,9.0,72,0.00,,,0.00,Wunderground v.1.15,2013-07-14 20:36:00,
2013-07-14 16:38:00,87.9,76.5,30.20,West,261,0.0,9.0,69,0.00,,,0.00,Wunderground v.1.15,2013-07-14 20:38:00,
2013-07-14 16:40:00,88.0,77.0,30.20,West,261,0.0,9.0,70,0.00,,,0.00,Wunderground v.1.15,2013-07-14 20:40:00,
2013-07-14 16:42:00,88.1,77.1,30.20,West,259,0.0,9.0,70,0.00,,,0.00,Wunderground v.1.15,2013-07-14 20:42:00,
2013-07-14 16:44:00,88.0,77.8,30.21,NE,42,0.0,9.0,72,0.00,,,0.00,Wunderground v.1.15,2013-07-14 20:44:00,
2013-07-14 16:46:00,87.6,77.5,30.21,North,360,0.0,9.0,72,0.00,,,0.00,Wunderground v.1.15,2013-07-14 20:46:00,
2013-07-14 16:48:00,87.0,77.3,30.21,NE,35,0.0,9.0,73,0.00,,,0.00,Wunderground v.1.15,2013-07-14 20:48:00,
2013-07-14 16:50:00,86.4,76.7,30.21,ESE,103,1.0,9.0,73,0.00,,,0.00,Wunderground v.1.15,2013-07-14 20:50:00,
2013-07-14 16:52:00,85.8,76.1,30.21,SE,128,1.0,9.0,73,0.00,,,0.00,Wunderground v.1.15,2013-07-14 20:52:00,
2013-07-14 16:58:00,83.4,75.8,30.21,NW,324,1.0,9.0,78,0.00,,,0.00,Wunderground v.1.15,2013-07-14 20:58:00,
2013-07-14 17:00:00,82.7,75.9,30.21,NE,42,0.0,9.0,80,0.00,,,0.01,Wunderground v.1.15,2013-07-14 21:00:00,
2013-07-14 17:02:00,81.6,75.2,30.21,WSW,250,0.0,9.0,81,0.00,,,0.01,Wunderground v.1.15,2013-07-14 21:02:00,
2013-07-14 17:06:00,79.7,74.8,30.21,WSW,244,0.0,9.0,85,0.00,,,0.01,Wunderground v.1.15,2013-07-14 21:06:00,
2013-07-14 17:08:00,79.4,74.5,30.20,WSW,245,0.0,9.0,85,0.00,,,0.01,Wunderground v.1.15,2013-07-14 21:08:00,
2013-07-14 17:10:00,79.1,74.2,30.20,WSW,245,0.0,9.0,85,0.00,,,0.01,Wunderground v.1.15,2013-07-14 21:10:00,
2013-07-14 17:14:00,78.7,74.2,30.20,WSW,245,0.0,9.0,86,0.00,,,0.01,Wunderground v.1.15,2013-07-14 21:14:00,
2013-07-14 17:16:00,78.9,74.4,30.20,WSW,245,0.0,9.0,86,0.00,,,0.01,Wunderground v.1.15,2013-07-14 21:16:00,
2013-07-14 17:20:00,80.1,75.5,30.20,NW,306,0.0,9.0,86,0.00,,,0.01,Wunderground v.1.15,2013-07-14 21:20:00,
2013-07-14 17:22:00,80.6,75.7,30.20,NW,307,0.0,9.0,85,0.00,,,0.01,Wunderground v.1.15,2013-07-14 21:22:00,
2013-07-14 17:24:00,81.1,75.8,30.20,NW,307,0.0,9.0,84,0.00,,,0.01,Wunderground v.1.15,2013-07-14 21:24:00,
2013-07-14 17:28:00,81.6,76.3,30.20,NW,307,0.0,9.0,84,0.00,,,0.01,Wunderground v.1.15,2013-07-14 21:28:00,
2013-07-14 17:30:00,81.8,76.1,30.20,NW,307,0.0,9.0,83,0.00,,,0.01,Wunderground v.1.15,2013-07-14 21:30:00,
2013-07-14 17:32:00,81.9,76.2,30.21,NW,307,0.0,9.0,83,0.00,,,0.01,Wunderground v.1.15,2013-07-14 21:32:00,
2013-07-14 17:36:00,81.7,76.4,30.21,NW,307,0.0,9.0,84,0.00,,,0.01,Wunderground v.1.15,2013-07-14 21:36:00,
2013-07-14 17:42:00,79.8,75.2,30.21,WSW,248,0.0,9.0,86,0.00,,,0.01,Wunderground v.1.15,2013-07-14 21:42:00,
2013-07-14 17:44:00,79.4,75.5,30.21,WSW,248,0.0,9.0,88,0.00,,,0.01,Wunderground v.1.15,2013-07-14 21:44:00,
2013-07-14 17:48:00,78.6,75.1,30.21,WSW,248,0.0,9.0,89,0.00,,,0.01,Wunderground v.1.15,2013-07-14 21:48:00,
2013-07-14 17:50:00,78.5,75.0,30.21,WSW,248,0.0,9.0,89,0.00,,,0.01,Wunderground v.1.15,2013-07-14 21:50:00,
2013-07-14 17:52:00,78.4,74.9,30.21,WSW,244,0.0,9.0,89,0.00,,,0.01,Wunderground v.1.15,2013-07-14 21:52:00,
2013-07-14 17:56:00,78.5,75.0,30.21,WSW,241,0.0,9.0,89,0.00,,,0.01,Wunderground v.1.15,2013-07-14 21:56:00,
2013-07-14 17:58:00,78.6,75.4,30.21,WSW,241,0.0,9.0,90,0.00,,,0.01,Wunderground v.1.15,2013-07-14 21:58:00,
2013-07-14 18:02:00,78.6,75.8,30.20,WSW,241,0.0,9.0,91,0.00,,,0.01,Wunderground v.1.15,2013-07-14 22:02:00,
2013-07-14 18:04:00,78.6,75.4,30.20,WSW,241,0.0,9.0,90,0.00,,,0.01,Wunderground v.1.15,2013-07-14 22:04:00,
2013-07-14 18:06:00,78.6,75.4,30.20,WSW,241,0.0,9.0,90,0.00,,,0.01,Wunderground v.1.15,2013-07-14 22:06:00,
2013-07-14 18:10:00,78.6,75.4,30.20,WSW,241,0.0,9.0,90,0.00,,,0.01,Wunderground v.1.15,2013-07-14 22:10:00,
2013-07-14 18:14:00,78.5,75.3,30.20,WSW,241,0.0,9.0,90,0.00,,,0.01,Wunderground v.1.15,2013-07-14 22:14:00,
2013-07-14 18:16:00,78.5,75.3,30.20,WSW,241,0.0,9.0,90,0.00,,,0.01,Wunderground v.1.15,2013-07-14 22:16:00,
2013-07-14 18:18:00,78.5,75.7,30.20,WSW,241,0.0,9.0,91,0.00,,,0.01,Wunderground v.1.15,2013-07-14 22:18:00,
2013-07-14 18:20:00,78.5,75.7,30.20,WSW,241,0.0,9.0,91,0.00,,,0.01,Wunderground v.1.15,2013-07-14 22:20:00,
2013-07-14 18:24:00,78.7,75.8,30.20,WSW,241,0.0,9.0,91,0.00,,,0.01,Wunderground v.1.15,2013-07-14 22:24:00,
2013-07-14 18:30:00,78.8,75.9,30.20,WSW,241,0.0,9.0,91,0.00,,,0.01,Wunderground v.1.15,2013-07-14 22:30:00,
2013-07-14 18:32:00,78.9,76.0,30.20,WSW,241,0.0,9.0,91,0.00,,,0.01,Wunderground v.1.15,2013-07-14 22:32:00,
2013-07-14 18:34:00,79.1,76.2,30.20,South,190,0.0,9.0,91,0.00,,,0.01,Wunderground v.1.15,2013-07-14 22:34:00,
2013-07-14 18:38:00,79.4,76.5,30.20,South,190,0.0,9.0,91,0.00,,,0.01,Wunderground v.1.15,2013-07-14 22:38:00,
2013-07-14 18:40:00,79.6,76.7,30.20,South,190,0.0,9.0,91,0.00,,,0.01,Wunderground v.1.15,2013-07-14 22:40:00,
2013-07-14 18:44:00,80.2,77.0,30.20,South,190,0.0,9.0,90,0.00,,,0.01,Wunderground v.1.15,2013-07-14 22:44:00,
2013-07-14 18:46:00,80.6,77.4,30.20,South,190,0.0,9.0,90,0.00,,,0.01,Wunderground v.1.15,2013-07-14 22:46:00,
2013-07-14 18:50:00,81.6,77.4,30.20,South,188,0.0,9.0,87,0.00,,,0.01,Wunderground v.1.15,2013-07-14 22:50:00,
2013-07-14 18:52:00,82.0,77.7,30.20,South,188,0.0,9.0,87,0.00,,,0.01,Wunderground v.1.15,2013-07-14 22:52:00,
2013-07-14 18:56:00,82.7,77.4,30.20,South,188,0.0,9.0,84,0.00,,,0.01,Wunderground v.1.15,2013-07-14 22:56:00,
2013-07-14 18:58:00,82.9,77.2,30.20,South,188,0.0,9.0,83,0.00,,,0.01,Wunderground v.1.15,2013-07-14 22:58:00,
2013-07-14 19:01:00,82.9,77.2,30.20,South,188,0.0,9.0,83,0.00,,,0.01,Wunderground v.1.15,2013-07-14 23:01:00,
2013-07-14 19:02:00,82.9,77.2,30.20,South,188,0.0,9.0,83,0.00,,,0.01,Wunderground v.1.15,2013-07-14 23:02:00,
2013-07-14 19:04:00,82.9,77.2,30.20,South,188,0.0,9.0,83,0.00,,,0.01,Wunderground v.1.15,2013-07-14 23:04:00,
2013-07-14 19:08:00,82.6,76.5,30.20,South,188,0.0,9.0,82,0.00,,,0.01,Wunderground v.1.15,2013-07-14 23:08:00,
2013-07-14 19:10:00,82.6,76.9,30.20,South,188,0.0,9.0,83,0.00,,,0.01,Wunderground v.1.15,2013-07-14 23:10:00,
2013-07-14 19:12:00,82.6,76.9,30.20,South,188,0.0,9.0,83,0.00,,,0.01,Wunderground v.1.15,2013-07-14 23:12:00,
2013-07-14 19:16:00,82.6,77.3,30.20,South,188,0.0,9.0,84,0.00,,,0.01,Wunderground v.1.15,2013-07-14 23:16:00,
2013-07-14 19:18:00,82.7,77.4,30.21,South,182,0.0,9.0,84,0.00,,,0.01,Wunderground v.1.15,2013-07-14 23:18:00,
2013-07-14 19:20:00,82.7,77.0,30.21,South,180,0.0,9.0,83,0.00,,,0.01,Wunderground v.1.15,2013-07-14 23:20:00,
2013-07-14 19:24:00,82.4,76.7,30.21,South,180,0.0,9.0,83,0.00,,,0.01,Wunderground v.1.15,2013-07-14 23:24:00,
2013-07-14 19:26:00,82.3,76.6,30.21,South,180,0.0,9.0,83,0.00,,,0.01,Wunderground v.1.15,2013-07-14 23:26:00,
2013-07-14 19:28:00,82.1,76.4,30.20,South,180,0.0,9.0,83,0.00,,,0.01,Wunderground v.1.15,2013-07-14 23:28:00,
2013-07-14 19:32:00,82.0,76.3,30.21,South,180,0.0,9.0,83,0.00,,,0.01,Wunderground v.1.15,2013-07-14 23:32:00,
2013-07-14 19:34:00,82.0,76.3,30.21,South,180,0.0,9.0,83,0.00,,,0.01,Wunderground v.1.15,2013-07-14 23:34:00,
2013-07-14 19:36:00,82.0,76.0,30.21,South,180,0.0,9.0,82,0.00,,,0.01,Wunderground v.1.15,2013-07-14 23:36:00,
2013-07-14 19:40:00,82.0,75.6,30.21,South,180,0.0,9.0,81,0.00,,,0.01,Wunderground v.1.15,2013-07-14 23:40:00,
2013-07-14 19:42:00,82.0,75.6,30.21,South,180,0.0,9.0,81,0.00,,,0.01,Wunderground v.1.15,2013-07-14 23:42:00,
2013-07-14 19:44:00,82.1,76.1,30.21,South,180,0.0,9.0,82,0.00,,,0.01,Wunderground v.1.15,2013-07-14 23:44:00,
2013-07-14 19:46:00,82.1,76.1,30.21,South,180,0.0,9.0,82,0.00,,,0.01,Wunderground v.1.15,2013-07-14 23:46:00,
2013-07-14 19:48:00,82.1,75.7,30.21,South,180,0.0,9.0,81,0.00,,,0.01,Wunderground v.1.15,2013-07-14 23:48:00,
2013-07-14 19:52:00,82.0,75.6,30.21,South,180,0.0,9.0,81,0.00,,,0.01,Wunderground v.1.15,2013-07-14 23:52:00,
2013-07-14 19:54:00,81.8,75.0,30.21,South,180,0.0,9.0,80,0.00,,,0.01,Wunderground v.1.15,2013-07-14 23:54:00,
2013-07-14 19:56:00,81.8,75.4,30.21,South,180,0.0,9.0,81,0.00,,,0.01,Wunderground v.1.15,2013-07-14 23:56:00,
2013-07-14 19:58:00,81.6,75.2,30.21,South,180,0.0,9.0,81,0.00,,,0.01,Wunderground v.1.15,2013-07-14 23:58:00,
2013-07-14 20:00:00,81.5,75.1,30.21,South,180,0.0,9.0,81,0.00,,,0.01,Wunderground v.1.15,2013-07-15 00:00:00,
2013-07-14 20:04:00,81.3,75.3,30.21,South,180,0.0,9.0,82,0.00,,,0.01,Wunderground v.1.15,2013-07-15 00:04:00,
2013-07-14 20:06:00,81.2,75.2,30.21,South,180,0.0,9.0,82,0.00,,,0.01,Wunderground v.1.15,2013-07-15 00:06:00,
2013-07-14 20:08:00,81.1,75.4,30.22,South,180,0.0,9.0,83,0.00,,,0.01,Wunderground v.1.15,2013-07-15 00:08:00,
2013-07-14 20:14:00,80.8,75.2,30.22,South,180,0.0,9.0,83,0.00,,,0.01,Wunderground v.1.15,2013-07-15 00:14:00,
2013-07-14 20:16:00,80.7,75.4,30.22,South,180,0.0,9.0,84,0.00,,,0.01,Wunderground v.1.15,2013-07-15 00:16:00,
2013-07-14 20:20:00,80.4,75.1,30.22,South,180,0.0,9.0,84,0.00,,,0.01,Wunderground v.1.15,2013-07-15 00:20:00,
2013-07-14 20:22:00,80.3,75.0,30.22,South,180,0.0,9.0,84,0.00,,,0.01,Wunderground v.1.15,2013-07-15 00:22:00,
2013-07-14 20:24:00,80.2,74.9,30.22,South,180,0.0,9.0,84,0.00,,,0.01,Wunderground v.1.15,2013-07-15 00:24:00,
2013-07-14 20:30:00,79.8,74.9,30.22,South,180,0.0,9.0,85,0.00,,,0.01,Wunderground v.1.15,2013-07-15 00:30:00,
2013-07-14 20:36:00,79.5,74.6,30.23,South,180,0.0,9.0,85,0.00,,,0.01,Wunderground v.1.15,2013-07-15 00:36:00,
2013-07-14 20:38:00,79.4,74.5,30.23,South,180,0.0,9.0,85,0.00,,,0.01,Wunderground v.1.15,2013-07-15 00:38:00,
2013-07-14 20:40:00,79.3,74.7,30.22,South,180,0.0,9.0,86,0.00,,,0.01,Wunderground v.1.15,2013-07-15 00:40:00,
2013-07-14 20:42:00,79.2,74.6,30.23,South,180,0.0,9.0,86,0.00,,,0.01,Wunderground v.1.15,2013-07-15 00:42:00,
2013-07-14 20:44:00,79.1,74.5,30.23,South,180,0.0,9.0,86,0.00,,,0.01,Wunderground v.1.15,2013-07-15 00:44:00,
2013-07-14 20:50:00,78.8,74.3,30.23,South,180,0.0,9.0,86,0.00,,,0.01,Wunderground v.1.15,2013-07-15 00:50:00,
2013-07-14 20:52:00,78.8,74.3,30.23,South,180,0.0,9.0,86,0.00,,,0.01,Wunderground v.1.15,2013-07-15 00:52:00,
2013-07-14 20:58:00,78.7,74.5,30.23,South,180,0.0,9.0,87,0.00,,,0.01,Wunderground v.1.15,2013-07-15 00:58:00,
2013-07-14 21:02:00,78.6,74.4,30.23,South,180,0.0,9.0,87,0.00,,,0.01,Wunderground v.1.15,2013-07-15 01:02:00,
2013-07-14 21:04:00,78.6,74.4,30.23,South,180,0.0,9.0,87,0.00,,,0.01,Wunderground v.1.15,2013-07-15 01:04:00,
2013-07-14 21:08:00,78.5,74.3,30.23,South,180,0.0,9.0,87,0.00,,,0.01,Wunderground v.1.15,2013-07-15 01:08:00,
2013-07-14 21:10:00,78.5,74.3,30.23,South,180,0.0,9.0,87,0.00,,,0.01,Wunderground v.1.15,2013-07-15 01:10:00,
2013-07-14 21:12:00,78.5,74.6,30.23,South,180,0.0,9.0,88,0.00,,,0.01,Wunderground v.1.15,2013-07-15 01:12:00,
2013-07-14 21:18:00,78.3,74.5,30.23,South,180,0.0,9.0,88,0.00,,,0.01,Wunderground v.1.15,2013-07-15 01:18:00,
2013-07-14 21:20:00,78.2,74.4,30.23,South,180,0.0,9.0,88,0.00,,,0.01,Wunderground v.1.15,2013-07-15 01:20:00,
2013-07-14 21:24:00,78.2,74.4,30.23,South,180,0.0,9.0,88,0.00,,,0.01,Wunderground v.1.15,2013-07-15 01:24:00,
2013-07-14 21:26:00,78.1,74.3,30.23,South,180,0.0,9.0,88,0.00,,,0.01,Wunderground v.1.15,2013-07-15 01:26:00,
2013-07-14 21:28:00,78.0,74.5,30.23,South,180,0.0,9.0,89,0.00,,,0.01,Wunderground v.1.15,2013-07-15 01:28:00,
2013-07-14 21:30:00,78.0,74.5,30.23,South,180,0.0,9.0,89,0.00,,,0.01,Wunderground v.1.15,2013-07-15 01:30:00,
2013-07-14 21:36:00,77.8,74.3,30.23,South,180,0.0,9.0,89,0.00,,,0.01,Wunderground v.1.15,2013-07-15 01:36:00,
2013-07-14 21:38:00,77.8,74.3,30.24,South,180,0.0,9.0,89,0.00,,,0.01,Wunderground v.1.15,2013-07-15 01:38:00,
2013-07-14 21:42:00,77.6,74.4,30.24,South,180,0.0,9.0,90,0.00,,,0.01,Wunderground v.1.15,2013-07-15 01:42:00,
2013-07-14 21:46:00,77.5,74.3,30.24,South,180,0.0,9.0,90,0.00,,,0.01,Wunderground v.1.15,2013-07-15 01:46:00,
2013-07-14 21:48:00,77.4,74.2,30.24,South,180,0.0,9.0,90,0.00,,,0.01,Wunderground v.1.15,2013-07-15 01:48:00,
2013-07-14 21:52:00,77.3,74.5,30.24,South,180,0.0,9.0,91,0.00,,,0.01,Wunderground v.1.15,2013-07-15 01:52:00,
2013-07-14 21:54:00,77.3,74.5,30.24,South,180,0.0,9.0,91,0.00,,,0.01,Wunderground v.1.15,2013-07-15 01:54:00,
2013-07-14 22:00:00,77.2,74.4,30.24,South,180,0.0,9.0,91,0.00,,,0.01,Wunderground v.1.15,2013-07-15 02:00:00,
2013-07-14 22:02:00,77.1,74.3,30.24,South,180,0.0,9.0,91,0.00,,,0.01,Wunderground v.1.15,2013-07-15 02:02:00,
2013-07-14 22:04:00,77.0,74.2,30.24,South,180,0.0,9.0,91,0.00,,,0.01,Wunderground v.1.15,2013-07-15 02:04:00,
2013-07-14 22:08:00,76.9,74.1,30.24,South,180,0.0,9.0,91,0.00,,,0.01,Wunderground v.1.15,2013-07-15 02:08:00,
2013-07-14 22:10:00,76.9,74.1,30.25,South,180,0.0,9.0,91,0.00,,,0.01,Wunderground v.1.15,2013-07-15 02:10:00,
2013-07-14 22:12:00,76.9,74.4,30.25,South,180,0.0,9.0,92,0.00,,,0.01,Wunderground v.1.15,2013-07-15 02:12:00,
2013-07-14 22:14:00,76.8,74.0,30.25,South,180,0.0,9.0,91,0.00,,,0.01,Wunderground v.1.15,2013-07-15 02:14:00,
2013-07-14 22:18:00,76.7,73.9,30.25,South,180,0.0,9.0,91,0.00,,,0.01,Wunderground v.1.15,2013-07-15 02:18:00,
2013-07-14 22:20:00,76.6,74.1,30.25,South,180,0.0,9.0,92,0.00,,,0.01,Wunderground v.1.15,2013-07-15 02:20:00,
2013-07-14 22:22:00,76.6,74.1,30.25,South,180,0.0,9.0,92,0.00,,,0.01,Wunderground v.1.15,2013-07-15 02:22:00,
2013-07-14 22:26:00,76.5,74.0,30.25,South,180,0.0,9.0,92,0.00,,,0.01,Wunderground v.1.15,2013-07-15 02:26:00,
2013-07-14 22:28:00,76.4,73.9,30.25,South,180,0.0,9.0,92,0.00,,,0.01,Wunderground v.1.15,2013-07-15 02:28:00,
2013-07-14 22:32:00,76.3,73.8,30.25,South,180,0.0,9.0,92,0.00,,,0.01,Wunderground v.1.15,2013-07-15 02:32:00,
2013-07-14 22:36:00,76.2,73.4,30.25,South,180,0.0,9.0,91,0.00,,,0.01,Wunderground v.1.15,2013-07-15 02:36:00,
2013-07-14 22:38:00,76.2,73.4,30.26,South,180,0.0,9.0,91,0.00,,,0.01,Wunderground v.1.15,2013-07-15 02:38:00,
2013-07-14 22:40:00,76.2,73.4,30.26,South,180,0.0,9.0,91,0.00,,,0.01,Wunderground v.1.15,2013-07-15 02:40:00,
2013-07-14 22:42:00,76.1,73.3,30.26,South,180,0.0,9.0,91,0.00,,,0.01,Wunderground v.1.15,2013-07-15 02:42:00,
2013-07-14 22:44:00,76.1,73.3,30.26,South,180,0.0,9.0,91,0.00,,,0.01,Wunderground v.1.15,2013-07-15 02:44:00,
2013-07-14 22:46:00,76.1,73.3,30.26,South,180,0.0,9.0,91,0.00,,,0.01,Wunderground v.1.15,2013-07-15 02:46:00,
2013-07-14 22:48:00,76.1,73.3,30.26,South,180,0.0,9.0,91,0.00,,,0.01,Wunderground v.1.15,2013-07-15 02:48:00,
2013-07-14 22:50:00,76.0,73.2,30.26,South,180,0.0,9.0,91,0.00,,,0.01,Wunderground v.1.15,2013-07-15 02:50:00,
2013-07-14 22:52:00,76.0,73.2,30.26,South,180,0.0,9.0,91,0.00,,,0.01,Wunderground v.1.15,2013-07-15 02:52:00,
2013-07-14 22:56:00,76.0,73.2,30.26,South,180,0.0,9.0,91,0.00,,,0.01,Wunderground v.1.15,2013-07-15 02:56:00,
2013-07-14 22:58:00,76.0,73.2,30.26,South,180,0.0,9.0,91,0.00,,,0.01,Wunderground v.1.15,2013-07-15 02:58:00,
2013-07-14 23:02:00,75.9,73.1,30.26,South,180,0.0,9.0,91,0.00,,,0.01,Wunderground v.1.15,2013-07-15 03:02:00,
2013-07-14 23:06:00,75.9,73.1,30.26,South,180,0.0,9.0,91,0.00,,,0.01,Wunderground v.1.15,2013-07-15 03:06:00,
2013-07-14 23:08:00,75.8,73.0,30.26,South,180,0.0,9.0,91,0.00,,,0.01,Wunderground v.1.15,2013-07-15 03:08:00,
2013-07-14 23:10:00,75.8,73.0,30.26,South,180,0.0,9.0,91,0.00,,,0.01,Wunderground v.1.15,2013-07-15 03:10:00,
2013-07-14 23:14:00,75.8,73.0,30.27,South,180,0.0,9.0,91,0.00,,,0.01,Wunderground v.1.15,2013-07-15 03:14:00,
2013-07-14 23:16:00,75.7,72.9,30.27,South,180,0.0,9.0,91,0.00,,,0.01,Wunderground v.1.15,2013-07-15 03:16:00,
2013-07-14 23:18:00,75.7,72.9,30.27,South,180,0.0,9.0,91,0.00,,,0.01,Wunderground v.1.15,2013-07-15 03:18:00,
2013-07-14 23:20:00,75.7,73.2,30.27,South,180,0.0,9.0,92,0.00,,,0.01,Wunderground v.1.15,2013-07-15 03:20:00,
2013-07-14 23:22:00,75.6,73.1,30.26,South,180,0.0,9.0,92,0.00,,,0.01,Wunderground v.1.15,2013-07-15 03:22:00,
2013-07-14 23:24:00,75.6,73.1,30.26,South,180,0.0,9.0,92,0.00,,,0.01,Wunderground v.1.15,2013-07-15 03:24:00,
2013-07-14 23:26:00,75.5,72.7,30.26,South,180,0.0,9.0,91,0.00,,,0.01,Wunderground v.1.15,2013-07-15 03:26:00,
2013-07-14 23:28:00,75.5,72.7,30.26,South,180,0.0,9.0,91,0.00,,,0.01,Wunderground v.1.15,2013-07-15 03:28:00,
2013-07-14 23:30:00,75.4,72.6,30.26,South,180,0.0,9.0,91,0.00,,,0.01,Wunderground v.1.15,2013-07-15 03:30:00,
2013-07-14 23:34:00,75.3,72.5,30.27,South,180,0.0,9.0,91,0.00,,,0.01,Wunderground v.1.15,2013-07-15 03:34:00,
2013-07-14 23:40:00,75.2,72.7,30.27,South,180,0.0,9.0,92,0.00,,,0.01,Wunderground v.1.15,2013-07-15 03:40:00,
2013-07-14 23:42:00,75.2,72.7,30.27,South,180,0.0,9.0,92,0.00,,,0.01,Wunderground v.1.15,2013-07-15 03:42:00,
2013-07-14 23:44:00,75.2,72.7,30.27,South,180,0.0,9.0,92,0.00,,,0.01,Wunderground v.1.15,2013-07-15 03:44:00,
2013-07-14 23:46:00,75.1,72.6,30.27,South,180,0.0,9.0,92,0.00,,,0.01,Wunderground v.1.15,2013-07-15 03:46:00,
2013-07-14 23:50:00,75.0,72.5,30.27,South,180,0.0,9.0,92,0.00,,,0.01,Wunderground v.1.15,2013-07-15 03:50:00,
2013-07-14 23:52:00,74.9,72.4,30.27,South,180,0.0,9.0,92,0.00,,,0.01,Wunderground v.1.15,2013-07-15 03:52:00,
2013-07-14 23:54:00,74.9,72.4,30.27,South,180,0.0,9.0,92,0.00,,,0.01,Wunderground v.1.15,2013-07-15 03:54:00,